Home > Weather > Mashhad > Past weeks

Flag for Iran Weather for the Past 2 Weeks in Mashhad, Iran

Now
25 °F

Snow flurries. Ice fog.


Feels Like: 14 °F
Forecast: 13 / 35 °F
Wind: 12 mph from Southeast

Location: Mashhad Airport

Current Time: Feb 10, 2016 at 9:19:50 AM

Latest Report: Feb 10, 2016 at 8:30 AM


Visibility: 2 mi

Pressure: 30.39 "Hg (26.83 "Hg at 981m altitude)

Humidity: 93%

Dew point: 23 °F

Location of MashhadLocation

Historic Weather in Mashhad — Graph

°F

Mashhad Temperature Yesterday

Maximum temperature yesterday: 36 °F (at 12:00 AM)
Minimum temperature yesterday: 28 °F (at 8:00 AM)
Average temperature yesterday: 32 °F

High & Low Weather Summary for the Past Weeks

 TemperatureHumidityPressure
High72 °F (Feb 7, 3:30 PM)100% (Jan 26, 7:30 AM)30.39 "Hg (Jan 26, 7:30 AM)
Low23 °F (Jan 30, 7:00 AM)10% (Feb 7, 1:30 PM)29.89 "Hg (Jan 26, 7:30 AM)
Average40 °F68%30.15 "Hg
* Reported Jan 26 7:30 AM — Feb 10 8:00 AM, Mashhad, Weather by CustomWeather, © 2016

Note: Actual official high and low records may vary slightly from our data, if they occured in-between our weather recording intervals... More about our weather records

Advertising

Mashhad Weather History for the Previous 24 Hours

 ConditionsComfort  
Time TempWeatherWind HumidityBarometerVisibility
8:00 AM
Wed, Feb 10
25 °FSnow flurries. Overcast.12 mph86%30.39 "Hg5 mi
7:30 AM25 °FOvercast.12 mph93%30.36 "HgN/A
7:00 AM25 °FOvercast.12 mph93%30.36 "HgN/A
6:30 AM25 °FOvercast.12 mph93%30.33 "HgN/A
6:00 AM25 °FPassing clouds.12 mph93%30.33 "HgN/A
5:30 AM23 °FPartly cloudy.9 mph93%30.30 "HgN/A
5:00 AM25 °FPassing clouds.12 mph80%30.30 "HgN/A
4:00 AM27 °FPassing clouds.12 mph69%30.30 "HgN/A
3:30 AM28 °FPassing clouds.7 mph55%30.30 "HgN/A
3:00 AM28 °FPassing clouds.12 mph59%30.30 "HgN/A
2:30 AM28 °FPassing clouds.12 mph59%30.30 "HgN/A
2:00 AM28 °FPassing clouds.16 mph55%30.30 "HgN/A
1:00 AM28 °FClear.16 mph55%30.27 "Hg10 mi
12:30 AM28 °FClear.16 mph59%30.27 "Hg10 mi
12:00 AM28 °FClear.14 mph55%30.27 "Hg10 mi
11:30 PM
Tue, Feb 9
30 °FClear.9 mph51%30.27 "Hg10 mi
11:00 PM30 °FPassing clouds.16 mph55%30.27 "HgN/A
10:30 PM30 °FPassing clouds.21 mph55%30.27 "HgN/A
10:00 PM30 °FClear.23 mph55%30.27 "Hg10 mi
9:30 PM30 °FPartly cloudy.21 mph55%30.27 "HgN/A
9:00 PM32 °FPartly cloudy.14 mph47%30.27 "HgN/A
8:30 PM32 °FPartly cloudy.23 mph51%30.27 "HgN/A
8:00 PM30 °FMostly cloudy.18 mph86%30.24 "HgN/A
7:30 PM30 °FPassing clouds.18 mph55%30.24 "HgN/A
7:00 PM30 °FMostly cloudy.21 mph55%30.24 "HgN/A
6:30 PM32 °FMostly cloudy.23 mph55%30.24 "HgN/A
6:00 PM32 °FMostly cloudy.23 mph51%30.21 "HgN/A
5:30 PM32 °FMostly cloudy.18 mph55%30.21 "HgN/A
5:00 PM32 °FMore clouds than sun.28 mph55%30.21 "HgN/A
4:00 PM32 °FMore clouds than sun.21 mph55%30.18 "HgN/A
3:30 PM32 °FMore clouds than sun.28 mph55%30.18 "HgN/A
3:00 PM34 °FMore clouds than sun.25 mph51%30.18 "HgN/A
2:00 PM34 °FMore clouds than sun.18 mph56%30.18 "HgN/A
1:30 PM34 °FMore clouds than sun.28 mph60%30.18 "HgN/A
1:00 PM34 °FMostly cloudy.18 mph60%30.18 "HgN/A
12:00 PM32 °FMostly cloudy.5 mph100%30.21 "HgN/A
11:30 AM32 °FLight snow. Ice fog.9 mph100%30.21 "Hg4 mi
11:00 AM30 °FSnow. Fog.14 mph100%30.21 "Hg1 mi
10:30 AM28 °FSnow. Fog.18 mph100%30.21 "Hg0 mi
10:00 AM30 °FSnow. Fog.18 mph100%30.18 "Hg1 mi
9:30 AM30 °FLight snow. Ice fog.14 mph100%30.18 "Hg1 mi
9:00 AM30 °FLight snow. Ice fog.9 mph100%30.18 "Hg1 mi
Weather by CustomWeather, © 2016

See weather overviewHow to use our weather pages